GW4042 Weather Reports


time (UTC)temp
F
wind
direction
speed
knots
gust
knots
rain 1hr
in
rain 24hr
in
rain mn
in
humidity
%
barometer
mb
20260506164510 53 244 5.2 10.4 0.00 0.00 0.00 90 1019.4
20260506163009 53 205 1.7 6.1 0.00 0.00 0.00 90 1019.7
20260506161506 53 257 3.5 7.0 0.00 0.00 0.00 90 1019.9
20260506160006 53 271 0.0 0.9 0.00 0.00 0.00 90 1019.8
20260506154505 53 222 0.0 0.0 0.00 0.00 0.00 89 1019.6
20260506153021 52 201 0.0 0.0 0.00 0.00 0.00 90 1019.5
20260506151521 52 329 0.0 0.0 0.00 0.00 0.00 90 1019.3
20260506150016 52 281 0.0 0.0 0.00 0.00 0.00 89 1019.2
20260506144513 52 279 0.0 0.0 0.00 0.00 0.00 89 1018.9
20260506143012 52 344 0.0 0.0 0.00 0.00 0.00 90 1019.1
20260506141509 52 290 0.0 0.0 0.00 0.00 0.00 90 1019.0
20260506140016 52 279 0.0 0.0 0.00 0.00 0.00 89 1018.9
20260506134505 51 102 0.0 0.0 0.00 0.00 0.00 90 1018.7
20260506133028 52 229 0.0 0.0 0.00 0.00 0.00 90 1018.6
20260506131518 51 330 0.0 0.0 0.00 0.00 0.00 90 1018.8
20260506130019 51 275 0.0 0.0 0.00 0.00 0.00 90 1018.8
20260506124521 51 175 0.0 0.0 0.00 0.00 0.00 90 1018.9
20260506123015 51 239 0.0 0.0 0.00 0.00 0.00 90 1018.4
20260506121510 51 198 0.0 0.0 0.00 0.00 0.00 90 1018.2
20260506120011 51 92 0.0 0.0 0.00 0.00 0.00 91 1018.0
20260506114536 51 68 0.0 0.0 0.00 0.00 0.00 92 1018.2
20260506113024 50 280 0.0 0.0 0.00 0.00 0.00 92 1018.1
20260506111522 50 276 0.0 0.0 0.00 0.00 0.00 91 1017.9
20260506110027 50 274 0.0 0.0 0.00 0.00 0.00 92 1017.8
20260506104519 50 262 0.0 0.0 0.00 0.00 0.00 92 1017.5
20260506103018 50 287 0.0 0.0 0.00 0.00 0.00 93 1017.3
20260506101518 50 349 0.0 0.0 0.00 0.00 0.00 93 1017.3
20260506100026 50 130 0.0 0.0 0.00 0.00 0.00 94 1017.3
20260506094526 49 190 0.0 0.0 0.00 0.00 0.00 93 1017.2
20260506093024 49 112 0.0 0.0 0.00 0.00 0.00 93 1017.3
20260506091522 50 62 0.0 0.0 0.00 0.00 0.00 93 1017.1
20260506090004 50 78 0.0 0.0 0.00 0.00 0.00 93 1017.1
20260506084519 50 60 0.0 0.0 0.00 0.00 0.00 92 1017.0
20260506083018 50 96 0.0 0.0 0.00 0.00 0.00 92 1016.8
20260506081518 50 96 0.0 0.0 0.00 0.00 0.00 91 1017.0
20260506073008 51 170 0.0 0.0 0.00 0.00 0.00 91 1016.6
20260506071506 51 97 0.0 0.0 0.00 0.00 0.00 91 1016.4
20260506041528 56 118 0.0 0.0 0.00 0.00 0.00 84 1015.4
20260506034512 58 37 0.9 4.3 0.00 0.00 0.00 81 1015.1
20260506033012 59 20 0.0 3.5 0.00 0.00 0.00 80 1014.7
20260506031532 61 331 0.0 2.6 0.00 0.00 0.00 77 1014.8
20260506030046 62 39 0.9 6.1 0.00 0.00 0.00 75 1014.7
20260506024529 63 248 0.0 5.2 0.00 0.00 0.00 74 1014.9
20260506023023 63 283 2.6 11.3 0.00 0.00 0.00 74 1014.9
20260506021520 63 244 4.3 13.0 0.00 0.00 0.00 72 1014.7
20260506020020 63 245 6.1 12.2 0.00 0.00 0.00 72 1014.6
20260506014528 64 258 4.3 11.3 0.00 0.00 0.00 72 1014.5
20260506013011 64 255 5.2 10.4 0.00 0.00 0.00 71 1014.6
20260506011534 63 267 5.2 13.0 0.00 0.00 0.00 72 1014.6
20260506010026 64 265 5.2 9.6 0.00 0.00 0.00 72 1014.6
20260506004542 63 293 3.5 9.6 0.00 0.00 0.00 72 1014.6
20260506003032 63 247 7.8 13.0 0.00 0.00 0.00 72 1014.6
20260506001523 64 252 5.2 12.2 0.00 0.00 0.00 71 1014.8
20260506000006 64 192 3.5 8.7 0.00 0.00 0.00 71 1014.9
20260505234503 63 250 2.6 8.7 0.00 0.00 0.00 73 1015.0
20260505233002 63 127 5.2 9.6 0.00 0.00 0.00 73 1015.2
20260505231504 63 257 2.6 9.6 0.00 0.00 0.00 73 1015.4
20260505230003 62 52 1.7 10.4 0.00 0.00 0.00 74 1015.4
20260505224504 62 206 2.6 11.3 0.00 0.00 0.00 74 1015.5
20260505223004 62 262 1.7 10.4 0.00 0.00 0.00 76 1015.7
20260505221504 61 253 0.9 10.4 0.00 0.00 0.00 76 1015.8
20260505220005 61 110 0.9 13.0 0.00 0.00 0.00 77 1015.9
20260505214503 61 175 2.6 9.6 0.00 0.00 0.00 76 1016.0
20260505213007 61 265 4.3 10.4 0.00 0.00 0.00 76 1016.0
20260505211506 61 235 3.5 9.6 0.00 0.00 0.00 77 1016.0
20260505210004 60 88 5.2 14.8 0.00 0.00 0.00 78 1016.2
20260505204505 60 236 5.2 12.2 0.00 0.00 0.00 78 1016.1
20260505203018 59 246 7.0 10.4 0.00 0.00 0.00 78 1016.2
20260505201503 59 242 8.7 13.0 0.00 0.00 0.00 79 1016.2
20260505200005 59 248 3.5 9.6 0.00 0.00 0.00 79 1016.3
20260505194504 58 247 7.8 13.0 0.00 0.00 0.00 81 1016.3
20260505191509 58 226 2.6 7.0 0.00 0.00 0.00 82 1016.3
20260505190009 57 223 3.5 8.7 0.00 0.00 0.00 82 1016.3
20260505184514 57 251 4.3 10.4 0.00 0.00 0.00 82 1016.2
20260505183010 57 288 2.6 8.7 0.00 0.00 0.00 82 1016.2
20260505181509 57 275 1.7 7.8 0.00 0.00 0.00 83 1016.2
20260505180007 57 234 0.9 6.1 0.00 0.00 0.00 84 1016.1
20260505174510 56 229 2.6 9.6 0.00 0.00 0.00 85 1016.1
20260505173010 56 205 1.7 7.0 0.00 0.00 0.00 85 1016.0
20260505171511 55 211 0.9 7.8 0.00 0.00 0.00 86 1015.9
20260505170017 55 232 0.9 4.3 0.00 0.00 0.00 86 1015.9